Location: Killam
(52.7910°N, 111.8608°W)
Time: 11:15:30
(UTC+00:00)

SR - Pass Details

Date: 24 February 2026
Orbit: 573 x 848 km, 66.7° (Epoch: 7 March)

Event Time Altitude Azimuth Distance (km) Brightness Sun altitude
Exits shadow 10:50:36 29° 53° (NE) 1,137 ? -32.2°
Drops below altitude 10° 10:52:59 10° 44° (NE) 2,037 ? -31.9°
Sets 10:55:23 0° 41° (NE) 2,994 ? -31.6°
